[[{"header":{"parameterUnit":"m.s-1","parameterCategory":1,"la1":30.2991,"la2":30.254,"lo1":-89.0895,"lo2":-89.0444,"dy":0.0017,"dx":0.0017,"nx":28,"ny":28,"refTime":"2025-05-30T03:00:00:Z","depth":0,"parameterNumber":2,"parameterNumberName":"U-component_of_WINDS"},"data":[0,0,0,0,0,0,0,0,0,0,0,0,0,0,0,0,0,0,0,0,0,0,0,0,0,0,0,0,0,0,0,0,0,0,0,0,0,0,0,0,0,0,0,0,0,0,0,0,0,0,0,0,0,0,0,0,0,0,1.3914,1.3915,0,1.3959,1.396,1.396,1.3936,1.3935,1.3933,1.3932,1.3977,1.398,1.3982,0,0,0,0,0,0,0,0,0,0,0,0,0,1.3807,1.3809,1.3914,1.3915,1.3915,1.3959,1.396,1.396,1.3936,1.3935,1.3933,1.3932,1.3977,1.3979,1.3982,0,0,0,0,0,0,0,0,0,0,0,0,0,1.3853,1.381,1.3914,1.3909,1.3908,1.3959,1.396,1.396,1.3936,1.3934,1.3933,1.3931,1.3976,1.3979,1.3983,1.4041,0,0,1.3993,1.3995,0,0,0,0,0,0,0,0,1.385,1.3857,1.3909,1.3909,1.3909,1.394,1.3938,1.3987,1.3937,1.3926,1.3932,1.393,1.3966,1.3971,1.3983,1.4043,1.4045,1.3994,1.3996,1.3997,1.3998,0,0,0,0,0,0,0,1.3847,1.3855,1.3932,1.391,1.391,1.3904,1.3908,1.3947,1.3956,1.3927,1.3925,1.3931,1.3966,1.398,1.3984,1.4045,1.3994,1.3997,1.3999,1.4,1.4155,1.4157,0,0,0,0,0,0,1.3844,1.3852,1.393,1.3933,1.3875,1.3907,1.3912,1.3932,1.3955,1.3957,1.3932,1.3929,1.3975,1.398,1.3985,1.4054,1.3997,1.4001,1.4003,1.4153,1.4155,1.4158,0,0,0,0,0,0,1.3842,1.3852,1.3929,1.3892,1.3902,1.3911,1.3933,1.3934,1.3947,1.3959,1.3961,1.3944,1.3973,1.398,1.4027,1.4056,1.4002,1.4005,1.4151,1.4154,1.4157,1.4193,0,0,0,0,0,0,1.3839,1.3851,1.3873,1.3893,1.3904,1.397,1.3935,1.3936,1.3953,1.395,1.3971,1.3973,1.3972,1.4022,1.4031,1.4059,1.4008,1.4148,1.4152,1.4156,1.419,1.4197,1.4204,0,0,0,0,0,1.3835,1.3882,1.3874,1.3884,1.3932,1.3972,1.3978,1.3976,1.3956,1.3978,1.3986,1.3972,1.4051,1.4027,1.4036,1.4067,1.4146,1.4151,1.4155,1.4186,1.4196,1.4204,0,0,0,0,0,0,1.3865,1.3884,1.3876,1.3931,1.395,1.3967,1.3995,1.3986,1.4011,1.4007,1.4004,1.4009,1.4058,1.4067,1.4039,1.4124,1.4096,1.4102,1.4116,1.4125,1.4132,1.4128,1.4011,0,0,0,0,0,1.3878,1.3909,1.3924,1.397,1.398,1.3986,1.4004,1.4001,1.402,1.4028,1.404,1.4059,1.4088,1.4107,1.4135,1.4191,1.4195,1.4217,1.4224,1.423,1.4235,1.4265,1.4275,1.4172,1.4172,1.4172,0,0,1.3904,1.3919,1.3938,1.3976,1.3991,1.4023,1.3993,1.4028,1.4052,1.4034,1.4078,1.4087,1.4109,1.416,1.4184,1.417,1.4265,1.4236,1.424,1.4242,1.4271,1.4281,1.4289,1.4176,1.4175,1.4175,0,0,1.3969,1.3983,1.4023,1.4038,1.4061,1.4065,1.4074,1.4094,1.4099,1.4144,1.4131,1.4159,1.4209,1.4225,1.4239,1.4311,1.4299,1.432,1.4356,1.4386,1.4394,1.4401,1.4426,1.4435,1.4325,1.4325,1.4326,0,1.3999,1.4046,1.4045,1.4081,1.4097,1.4083,1.4123,1.4138,1.4168,1.418,1.4164,1.4227,1.4241,1.4296,1.4313,1.4326,1.4336,1.4317,1.4393,1.44,1.4407,1.443,1.4439,1.4328,1.4327,1.4327,1.4327,0,1.4082,1.4115,1.4145,1.4174,1.4195,1.4233,1.4236,1.4257,1.4253,1.4259,1.4304,1.432,1.435,1.4364,1.436,1.4418,1.4409,1.4393,1.4364,1.4419,1.4441,1.445,1.4331,1.433,1.433,1.4329,0,0,1.4165,1.4194,1.4205,1.4218,1.4242,1.4267,1.4305,1.4335,1.4352,1.4374,1.4404,1.4448,1.4433,1.445,1.4448,1.4474,1.4528,1.4455,1.4455,1.4467,1.4593,1.4604,1.4615,1.4521,1.4523,1.4524,1.4591,0,1.423,1.4296,1.4295,1.4356,1.4386,1.4373,1.4406,1.4424,1.443,1.4457,1.4464,1.4494,1.4473,1.4483,1.4508,1.4516,1.4554,1.4512,1.4549,1.4551,1.4543,1.4626,1.4638,1.47,1.46,1.4601,1.4602,0,1.4315,1.434,1.4403,1.4422,1.4435,1.4464,1.4492,1.4517,1.4538,1.4541,1.4559,1.4553,1.4591,1.4562,1.4614,1.4585,1.4601,1.4607,1.461,1.4612,1.4579,1.463,1.472,1.4729,1.4616,1.4615,1.4614,0,1.4368,1.4417,1.4461,1.4473,1.4497,1.4518,1.4529,1.4548,1.4566,1.459,1.4601,1.4629,1.4644,1.4666,1.4668,1.4647,1.472,1.4691,1.4723,1.4723,1.4738,1.4737,1.483,1.475,1.475,1.4749,1.4749,0,1.4441,1.448,1.4485,1.4512,1.4556,1.4555,1.4598,1.4607,1.4624,1.4652,1.4643,1.467,1.4671,1.4699,1.47,1.4743,1.475,1.4753,1.4752,1.4753,1.4752,1.4762,1.4758,1.4752,1.4751,1.4751,1.475,0,1.4507,1.4512,1.4559,1.4579,1.4584,1.4615,1.4632,1.4657,1.4663,1.4699,1.4708,1.4717,1.4749,1.4753,1.479,1.4791,1.4842,1.4838,1.4835,1.4834,1.4865,1.4862,1.4968,1.4981,1.4893,1.4893,1.4894,0,1.4552,1.4582,1.4604,1.4623,1.4635,1.4665,1.4683,1.4684,1.4704,1.4729,1.4752,1.4783,1.4808,1.4859,1.4869,1.4897,1.4893,1.4928,1.4897,1.4897,1.4893,1.4891,1.4893,1.4934,1.4935,1.4936,1.4936,0,1.4631,1.4633,1.466,1.4688,1.471,1.4733,1.4753,1.4769,1.4773,1.4795,1.4828,1.4847,1.4885,1.4916,1.4944,1.4955,1.4946,1.4946,1.4955,1.4955,1.4952,1.4954,1.485,1.4944,1.4943,1.4942,1.4942,1.4942,1.4688,1.4714,1.4733,1.4764,1.478,1.48,1.4825,1.4834,1.4861,1.4892,1.4891,1.4927,1.4947,1.4984,1.4997,1.5025,1.5013,1.5026,1.5029,1.5032,1.5035,1.4949,1.503,1.503,1.503,1.503,1.503,0,1.4766,1.4778,1.4806,1.4836,1.486,1.485,1.4873,1.4894,1.4925,1.4945,1.4969,1.5007,1.5037,1.5049,1.5079,1.5099,1.5095,1.5106,1.5104,1.5107,1.5044,1.5033,1.5108,1.5108,1.5108,1.5108,1.5108,1.5108,1.4809,1.4852,1.4856,1.4907,1.4919,1.4954,1.4968,1.4986,1.5001,1.5044,1.5069,1.5077,1.5093,1.5124,1.5151,1.5154,1.5165,1.5177,1.5178,1.5119,1.5111,1.5104,1.5093,1.518,1.518,1.5239,1.5239,1.524]},{"header":{"parameterUnit":"m.s-1","parameterCategory":1,"la1":30.2991,"la2":30.254,"lo1":-89.0895,"lo2":-89.0444,"dy":0.0017,"dx":0.0017,"nx":28,"ny":28,"refTime":"2025-05-30T03:00:00:Z","depth":0,"parameterNumber":3,"parameterNumberName":"V-component_of_WINDS"},"data":[0,0,0,0,0,0,0,0,0,0,0,0,0,0,0,0,0,0,0,0,0,0,0,0,0,0,0,0,0,0,0,0,0,0,0,0,0,0,0,0,0,0,0,0,0,0,0,0,0,0,0,0,0,0,0,0,0,0,2.877,2.8771,0,2.8865,2.8866,2.8867,2.8835,2.8833,2.8831,2.8829,2.8922,2.8926,2.8931,0,0,0,0,0,0,0,0,0,0,0,0,0,2.8558,2.8562,2.877,2.8771,2.8772,2.8864,2.8866,2.8867,2.8836,2.8833,2.8831,2.8828,2.8921,2.8926,2.8931,0,0,0,0,0,0,0,0,0,0,0,0,0,2.8651,2.8563,2.877,2.8768,2.8769,2.8864,2.8866,2.8867,2.8836,2.8833,2.883,2.8827,2.8919,2.8925,2.8932,2.9033,0,0,2.8952,2.8955,0,0,0,0,0,0,0,0,2.8646,2.8659,2.8767,2.8768,2.8769,2.8835,2.8825,2.8923,2.8837,2.8811,2.8829,2.8826,2.8895,2.8904,2.8928,2.9038,2.9042,2.8952,2.8956,2.8959,2.8961,0,0,0,0,0,0,0,2.8639,2.8655,2.8807,2.8769,2.877,2.8761,2.8771,2.8843,2.8869,2.8813,2.8811,2.8822,2.8895,2.8922,2.893,2.9043,2.8952,2.8958,2.8962,2.8965,2.9239,2.9243,0,0,0,0,0,0,2.8633,2.8649,2.8804,2.881,2.8699,2.8767,2.8778,2.8817,2.8868,2.8873,2.8825,2.8821,2.8912,2.8922,2.8933,2.9054,2.8959,2.8965,2.8969,2.9236,2.924,2.9244,0,0,0,0,0,0,2.8628,2.8647,2.88,2.8729,2.8748,2.8774,2.8818,2.8821,2.8847,2.8877,2.8881,2.8848,2.891,2.8924,2.9009,2.9057,2.8968,2.8974,2.9232,2.9237,2.9242,2.9299,0,0,0,0,0,0,2.8622,2.8646,2.8686,2.873,2.8752,2.8876,2.8821,2.8825,2.8859,2.8854,2.89,2.8904,2.8909,2.8999,2.9015,2.9065,2.8979,2.9228,2.9234,2.924,2.9292,2.9305,2.9316,0,0,0,0,0,2.8615,2.8697,2.8688,2.8707,2.8803,2.8879,2.8891,2.8896,2.8863,2.8902,2.8922,2.8903,2.905,2.9008,2.9026,2.9078,2.9225,2.9233,2.924,2.9287,2.9302,2.9315,0,0,0,0,0,0,2.8656,2.8703,2.8693,2.8792,2.8832,2.8873,2.8924,2.8912,2.8961,2.8954,2.8957,2.8967,2.9054,2.9075,2.9028,2.9178,2.9132,2.9144,2.9162,2.9177,2.9188,2.9181,2.8985,0,0,0,0,0,2.8677,2.8736,2.8773,2.8857,2.8878,2.8897,2.8931,2.8931,2.8972,2.8988,2.9013,2.9052,2.9107,2.9143,2.9195,2.9295,2.9304,2.934,2.9352,2.9361,2.937,2.9424,2.944,2.9269,2.9269,2.9269,0,0,2.872,2.8753,2.879,2.8866,2.8897,2.8957,2.8912,2.8977,2.9021,2.8997,2.9079,2.9099,2.9143,2.9235,2.9277,2.9255,2.942,2.9371,2.9378,2.9382,2.9433,2.9449,2.9464,2.9274,2.9273,2.9272,0,0,2.8828,2.886,2.8933,2.8965,2.9013,2.9025,2.9043,2.9086,2.9099,2.9181,2.9165,2.9216,2.9311,2.9342,2.9371,2.9491,2.9475,2.9508,2.9568,2.962,2.9633,2.9645,2.9687,2.9702,2.9518,2.9518,2.9518,0,2.8875,2.8966,2.8972,2.9039,2.9072,2.9055,2.9128,2.9158,2.922,2.9242,2.9217,2.9335,2.9363,2.9462,2.9492,2.9516,2.9534,2.9502,2.9631,2.9643,2.9654,2.9694,2.971,2.9521,2.9521,2.9521,2.952,0,2.9021,2.9084,2.9137,2.9199,2.9238,2.9308,2.9322,2.9361,2.9358,2.9373,2.9456,2.9489,2.9547,2.9571,2.9568,2.967,2.9654,2.963,2.9583,2.9674,2.9712,2.9727,2.9527,2.9525,2.9524,2.9523,0,0,2.9158,2.9221,2.9241,2.9268,2.9319,2.9367,2.9435,2.9493,2.9526,2.9569,2.9625,2.9706,2.9684,2.9716,2.9716,2.9762,2.9854,2.9732,2.9733,2.9753,2.9966,2.9984,3.0001,2.9844,2.9847,2.9849,2.9962,0,2.927,2.9391,2.9398,2.9507,2.9565,2.9549,2.9608,2.9645,2.9661,2.9711,2.9727,2.9784,2.9751,2.977,2.9815,2.9833,2.9897,2.9825,2.9894,2.9897,2.9883,3.0021,3.004,3.0145,2.9977,2.9979,2.9981,0,2.9417,2.9466,2.9581,2.9624,2.9648,2.9701,2.9755,2.9803,2.9844,2.9852,2.9888,2.9882,2.995,2.9902,2.9995,2.9946,2.9975,2.9988,2.9993,2.9998,2.9944,3.0029,3.0179,3.0194,3.0005,3.0003,3.0001,0,2.9504,2.9598,2.9679,2.9703,2.9755,2.9792,2.9815,2.9854,2.9888,2.9934,2.9956,3.0009,3.0038,3.0079,3.0086,3.0051,3.0179,3.0132,3.0186,3.0186,3.0213,3.0211,3.0368,3.0234,3.0233,3.0233,3.0233,0,2.9627,2.9698,2.9719,2.9768,2.9847,2.9853,2.993,2.995,2.9985,3.0037,3.0026,3.0075,3.0083,3.0134,3.014,3.0215,3.0229,3.0236,3.0236,3.0236,3.0235,3.0254,3.0247,3.0237,3.0236,3.0235,3.0235,0,2.9737,2.9754,2.9841,2.9883,2.9895,2.9951,2.9987,3.0033,3.0048,3.0114,3.013,3.0152,3.0211,3.0223,3.0292,3.0296,3.0386,3.038,3.0372,3.0371,3.0425,3.0419,3.0599,3.0622,3.0473,3.0474,3.0476,0,2.9815,2.9869,2.9917,2.9952,2.9977,3.0034,3.0069,3.0077,3.0114,3.0164,3.0205,3.0263,3.0309,3.0404,3.0425,3.0477,3.0472,3.0531,3.0479,3.0477,3.0471,3.0468,3.0473,3.054,3.0542,3.0543,3.0544,0,2.995,2.9955,3.0007,3.0063,3.0105,3.0148,3.0189,3.0218,3.0231,3.0273,3.0334,3.037,3.0441,3.0498,3.0551,3.0573,3.0561,3.0561,3.0576,3.0576,3.0569,3.0572,3.0398,3.0556,3.0555,3.0554,3.0554,3.0553,3.0045,3.0092,3.0134,3.0192,3.0224,3.0262,3.0309,3.0329,3.038,3.044,3.0441,3.0507,3.0545,3.0615,3.064,3.0691,3.0672,3.0694,3.07,3.0705,3.0709,3.0562,3.07,3.07,3.07,3.07,3.0699,0,3.0179,3.0205,3.0258,3.0317,3.0362,3.0348,3.0393,3.0431,3.049,3.0528,3.0574,3.0643,3.0698,3.0724,3.0778,3.0814,3.0809,3.0828,3.0824,3.0829,3.0724,3.0705,3.083,3.083,3.083,3.083,3.083,3.083,3.0254,3.0333,3.0343,3.0438,3.0463,3.0528,3.0555,3.059,3.062,3.0698,3.0745,3.0762,3.0794,3.0851,3.09,3.0906,3.0926,3.0947,3.095,3.085,3.0837,3.0824,3.0806,3.0951,3.0951,3.1052,3.1052,3.1053]}]]